R/V Atlantis Calliope CSV data file  (Time stamps are GMT)
Date, Time_GMT, Dec_Lat, Dec_Lon, Depth12, Depth35, GPS_COG, GPS_SOG, Gyro, Air_Temp, IMET_BPR, IMET_SWR, HRH, PhinsHd, SBE45C, SBE45S, SBE45T, Salinity, SSTMP, SSV, SSCND, SST_FSI, SST_SBE48, Wnd_Dir, Wnd_Spd, HdChkSum=1B
2009/03/17, 00:00:03, 2.703767, -103.360667, , , 75.0, 9.30, 76.7, 25.528, 1007.60, 85.0, 82.565, 75.2, , , , 33.8848, 26.4290, 1536.5761, 53.0143, 26.1558, 26.4290, 77.2, 3.9379, 1B
2009/03/17, 00:01:02, 2.704350, -103.358200, , , 76.0, 8.90, 77.1, 25.544, 1007.53, 112.6, 83.193, 75.6, , , , 33.9564, 26.4264, 1536.6464, 53.1112, 26.2344, 26.4264, 82.8, 3.8316, 1B
2009/03/17, 00:02:02, 2.704917, -103.355733, , , 79.0, 9.10, 76.5, 25.544, 1007.53, 189.9, 83.009, 75.3, , , , 33.9024, 26.4169, 1536.5668, 53.0264, 26.1590, 26.4169, 76.9, 3.6331, 1B
2009/03/17, 00:03:01, 2.705533, -103.353250, , , 76.0, 9.30, 75.9, 25.544, 1007.54, 133.4, 83.139, 75.2, , , , 33.8957, 26.3964, 1536.5211, 53.0000, 26.1513, 26.3964, 71.4, 4.1141, 1B
2009/03/17, 00:04:02, 2.706133, -103.350767, , , 75.0, 9.40, 76.2, 25.559, 1007.70, 128.5, 83.300, 75.8, , , , 33.8893, 26.3686, 1536.4406, 52.9588, 26.0893, 26.3686, 74.6, 3.9668, 1B
2009/03/17, 00:05:02, 2.706717, -103.348267, , , 79.0, 9.30, 76.1, 25.551, 1007.47, 142.7, 83.085, 75.6, , , , 33.9539, 26.3572, 1536.4830, 53.0368, 26.1694, 26.3572, 73.7, 3.8953, 1B
2009/03/17, 00:06:02, 2.707317, -103.345783, , , 78.0, 9.60, 75.9, 25.536, 1007.44, 169.5, 83.085, 75.3, , , , 33.9763, 26.3526, 1536.4962, 53.0632, 26.1919, 26.3526, 72.4, 3.6616, 1B
2009/03/17, 00:07:02, 2.707917, -103.343317, , , 79.0, 9.20, 76.5, 25.544, 1007.46, 148.9, 83.093, 75.5, , , , 33.9414, 26.3434, 1536.4376, 53.0053, 26.1505, 26.3434, 72.6, 4.1713, 1B
2009/03/17, 00:08:02, 2.708500, -103.340833, , , 80.0, 9.20, 77.0, 25.551, 1007.59, 87.0, 83.323, 75.6, , , , 33.9519, 26.3328, 1536.4242, 53.0091, 26.1253, 26.3328, 71.3, 4.2443, 1B
2009/03/17, 00:09:01, 2.709083, -103.338350, , , 74.0, 9.20, 76.1, 25.536, 1007.59, 74.5, 83.491, 75.4, , , , 33.9476, 26.3247, 1536.4008, 52.9948, 26.1462, 26.3247, 77.3, 3.9112, 1B
2009/03/17, 00:10:01, 2.709683, -103.335883, , , 78.0, 9.40, 76.3, 25.528, 1007.49, 90.4, 83.522, 75.4, , , , 33.9467, 26.3300, 1536.4072, 52.9868, 26.1369, 26.3300, 80.3, 3.9969, 1B
2009/03/17, 00:11:01, 2.710267, -103.333400, , , 81.0, 9.20, 76.6, 25.536, 1007.75, 99.6, 83.667, 75.8, , , , 33.9353, 26.3423, 1536.4202, 52.9921, 26.1457, 26.3423, 75.7, 4.0206, 1B
2009/03/17, 00:12:02, 2.710867, -103.330933, , , 74.0, 9.10, 77.1, 25.513, 1007.78, 88.1, 83.346, 75.2, , , , 33.9671, 26.3554, 1536.4929, 53.0534, 26.1896, 26.3554, 78.4, 3.9163, 1B
2009/03/17, 00:13:02, 2.711450, -103.328467, , , 75.0, 8.70, 76.9, 25.505, 1007.44, 82.0, 83.078, 75.8, , , , 33.9890, 26.3558, 1536.5172, 53.0842, 26.2294, 26.3558, 73.0, 4.6573, 1B
2009/03/17, 00:14:02, 2.712033, -103.326017, , , 76.0, 9.10, 76.6, 25.490, 1007.58, 60.5, 82.634, 75.3, , , , 33.9832, 26.3576, 1536.5152, 53.0780, 26.2201, 26.3576, 71.4, 4.3364, 1B
2009/03/17, 00:15:01, 2.712617, -103.323533, , , 75.0, 9.20, 76.4, 25.490, 1007.58, 52.6, 82.388, 75.2, , , , 33.9440, 26.3543, 1536.4662, 53.0203, 26.1638, 26.3543, 75.7, 4.3517, 1B
2009/03/17, 00:16:02, 2.713200, -103.321050, , , 78.0, 9.20, 75.7, 25.505, 1007.74, 53.1, 82.480, 74.8, , , , 33.9807, 26.3571, 1536.5114, 53.0740, 26.2176, 26.3571, 79.3, 4.2894, 1B
2009/03/17, 00:17:02, 2.713800, -103.318567, , , 76.0, 9.20, 76.7, 25.513, 1007.51, 61.0, 82.779, 75.5, , , , 33.9834, 26.3545, 1536.5082, 53.0751, 26.2183, 26.3545, 86.7, 4.2832, 1B
2009/03/17, 00:18:02, 2.714383, -103.316100, , , 78.0, 9.20, 76.2, 25.528, 1007.78, 76.5, 82.925, 75.2, , , , 33.9466, 26.3448, 1536.4464, 53.0140, 26.1635, 26.3448, 82.1, 4.0108, 1B
2009/03/17, 00:19:02, 2.714983, -103.313633, , , 79.0, 9.10, 76.2, 25.521, 1007.67, 85.7, 82.787, 75.6, , , , 33.9464, 26.3339, 1536.4209, 53.0026, 26.1590, 26.3339, 76.7, 4.1945, 1B
2009/03/17, 00:20:01, 2.715567, -103.311167, , , 73.0, 9.20, 75.9, 25.544, 1007.78, 113.2, 82.986, 75.3, , , , 34.0052, 26.3329, 1536.4808, 53.0830, 26.2115, 26.3329, 77.2, 4.2132, 1B
2009/03/17, 00:21:02, 2.716150, -103.308700, , , 78.0, 9.10, 75.5, 25.536, 1007.64, 92.5, 82.863, 74.7, , , , 34.0557, 26.3413, 1536.5547, 53.1619, 26.2883, 26.3413, 75.5, 4.2532, 1B
2009/03/17, 00:22:01, 2.716750, -103.306233, , , 78.0, 9.10, 76.4, 25.544, 1007.65, 75.7, 83.147, 75.1, , , , 34.0122, 26.3467, 1536.5208, 53.1071, 26.2483, 26.3467, 66.5, 4.5889, 1B
2009/03/17, 00:23:01, 2.717333, -103.303767, , , 74.0, 8.80, 75.9, 25.544, 1007.64, 47.8, 83.147, 75.2, , , , 33.9764, 26.3470, 1536.4833, 53.0576, 26.2086, 26.3470, 77.6, 4.4028, 1B
2009/03/17, 00:24:01, 2.717917, -103.301333, , , 77.0, 8.90, 76.0, 25.528, 1007.68, 33.2, 82.787, 75.4, , , , 34.0092, 26.3493, 1536.5190, 53.1035, 26.2396, 26.3493, 77.6, 4.3699, 1B
2009/03/17, 00:25:02, 2.718483, -103.298883, , , 74.0, 9.00, 75.4, 25.528, 1007.80, 32.9, 82.955, 75.0, , , , 34.0312, 26.3546, 1536.5594, 53.1416, 26.2792, 26.3546, 75.2, 4.4413, 1B
2009/03/17, 00:26:02, 2.719067, -103.296450, , , 79.0, 8.90, 75.6, 25.521, 1007.75, 33.9, 83.300, 74.9, , , , 33.9914, 26.3586, 1536.5263, 53.0904, 26.2336, 26.3586, 68.0, 4.8826, 1B
2009/03/17, 00:27:02, 2.719667, -103.294000, , , 74.0, 9.10, 75.9, 25.513, 1007.82, 35.8, 82.940, 74.8, , , , 33.9546, 26.3607, 1536.4919, 53.0414, 26.1880, 26.3607, 69.7, 4.4076, 1B
2009/03/17, 00:28:02, 2.720267, -103.291567, , , 76.0, 9.00, 76.6, 25.513, 1007.79, 40.6, 82.940, 75.4, , , , 33.9946, 26.3633, 1536.5406, 53.0997, 26.2275, 26.3633, 72.9, 4.4392, 1B
2009/03/17, 00:29:02, 2.720817, -103.289133, , , 79.0, 9.10, 75.9, 25.528, 1007.62, 48.0, 83.422, 75.5, , , , 34.0391, 26.3701, 1536.6039, 53.1685, 26.2982, 26.3701, 65.9, 4.1797, 1B
2009/03/17, 00:30:01, 2.721433, -103.286683, , , 77.0, 9.50, 76.2, 25.544, 1007.65, 51.8, 84.004, 75.5, , , , 34.0040, 26.3710, 1536.5695, 53.1210, 26.2618, 26.3710, 68.9, 3.9218, 1B
2009/03/17, 00:31:01, 2.722000, -103.284233, , , 78.0, 9.30, 76.3, 25.521, 1007.68, 50.4, 83.966, 75.4, , , , 34.0080, 26.3690, 1536.5684, 53.1242, 26.2586, 26.3690, 63.7, 3.9945, 1B
2009/03/17, 00:32:01, 2.722567, -103.281817, , , 77.0, 8.70, 76.3, 25.513, 1007.64, 56.1, 83.315, 75.1, , , , 34.0062, 26.3658, 1536.5604, 53.1191, 26.2561, 26.3658, 66.4, 4.3576, 1B
2009/03/17, 00:33:01, 2.723167, -103.279383, , , 77.0, 9.10, 76.4, 25.536, 1007.74, 68.3, 83.453, 75.4, , , , 33.9902, 26.3589, 1536.5299, 53.0909, 26.2361, 26.3589, 72.6, 4.1700, 1B
2009/03/17, 00:34:01, 2.723733, -103.276933, , , 76.0, 8.80, 76.2, 25.528, 1007.84, 79.7, 84.012, 75.1, , , , 34.0021, 26.3578, 1536.5363, 53.1046, 26.2390, 26.3578, 68.4, 3.9165, 1B
2009/03/17, 00:35:01, 2.724317, -103.274517, , , 73.0, 8.90, 76.0, 25.528, 1007.82, 66.5, 84.135, 75.3, , , , 33.9611, 26.3561, 1536.4900, 53.0466, 26.1938, 26.3561, 73.0, 3.9639, 1B
2009/03/17, 00:36:01, 2.724883, -103.272117, , , 78.0, 8.90, 75.8, 25.528, 1007.67, 47.6, 83.974, 75.3, , , , 33.9727, 26.3530, 1536.4945, 53.0592, 26.1992, 26.3530, 70.6, 4.2854, 1B
2009/03/17, 00:37:01, 2.725467, -103.269717, , , 71.0, 8.80, 75.5, 25.528, 1007.74, 30.4, 83.974, 74.6, , , , 33.9753, 26.3492, 1536.4884, 53.0653, 26.2107, 26.3492, 68.3, 4.0271, 1B
2009/03/17, 00:38:01, 2.726017, -103.267317, , , 80.0, 8.60, 76.1, 25.490, 1007.87, 27.9, 83.553, 75.3, , , , 33.9935, 26.3440, 1536.4946, 53.0783, 26.2151, 26.3440, 66.2, 4.9995, 1B
2009/03/17, 00:39:01, 2.726600, -103.264950, , , 80.0, 8.70, 76.2, 25.482, 1007.77, 27.5, 83.690, 75.1, , , , 33.9944, 26.3430, 1536.4932, 53.0785, 26.2273, 26.3430, 66.3, 4.5317, 1B
2009/03/17, 00:40:01, 2.727183, -103.262550, , , 81.0, 8.80, 76.0, 25.521, 1007.82, 31.2, 84.449, 75.4, , , , 33.9713, 26.3385, 1536.4581, 53.0419, 26.2179, 26.3385, 60.5, 4.1417, 1B
2009/03/17, 00:41:02, 2.727750, -103.260150, , , 74.0, 9.00, 75.8, 25.474, 1007.85, 32.8, 83.867, 75.2, , , , 34.0040, 26.3378, 1536.4914, 53.0865, 26.2273, 26.3378, 69.7, 4.7401, 1B
2009/03/17, 00:42:01, 2.728300, -103.257767, , , 80.0, 8.80, 76.6, 25.474, 1007.63, 25.6, 84.219, 75.0, , , , 34.0383, 26.3421, 1536.5347, 53.1371, 26.2729, 26.3421, 64.7, 4.9831, 1B
2009/03/17, 00:43:02, 2.728883, -103.255350, , , 75.0, 8.90, 75.7, 25.474, 1007.74, 22.4, 84.357, 74.7, , , , 33.9452, 26.3427, 1536.4401, 53.0099, 26.1696, 26.3427, 68.3, 4.7813, 1B
2009/03/17, 00:44:01, 2.729483, -103.252933, , , 79.0, 9.10, 76.7, 25.467, 1007.76, 23.9, 83.913, 76.3, , , , 33.9235, 26.3362, 1536.4064, 52.9731, 26.1326, 26.3362, 65.2, 4.7820, 1B
2009/03/17, 00:45:01, 2.730033, -103.250533, , , 78.0, 8.80, 75.9, 25.459, 1007.83, 24.0, 84.204, 74.9, , , , 33.9600, 26.3278, 1536.4212, 53.0152, 26.1670, 26.3278, 72.2, 4.5418, 1B
2009/03/17, 00:46:02, 2.730617, -103.248133, , , 75.0, 9.00, 76.4, 25.459, 1007.83, 19.4, 83.828, 75.1, , , , 33.9453, 26.3117, 1536.3681, 52.9783, 26.1453, 26.3117, 77.6, 4.7224, 1B
2009/03/17, 00:47:02, 2.731200, -103.245717, , , 74.0, 8.70, 76.4, 25.459, 1007.91, 19.0, 83.514, 75.1, , , , 33.9524, 26.3001, 1536.3486, 52.9763, 26.1334, 26.3001, 79.4, 4.8648, 1B
2009/03/17, 00:48:02, 2.731767, -103.243333, , , 75.0, 9.00, 76.2, 25.474, 1007.89, 23.3, 83.591, 76.0, , , , 33.9999, 26.2991, 1536.3970, 53.0412, 26.1826, 26.2991, 78.7, 4.2754, 1B
2009/03/17, 00:49:02, 2.732317, -103.240900, , , 76.0, 9.00, 75.8, 25.482, 1007.93, 26.3, 83.928, 75.0, , , , 33.9540, 26.3011, 1536.3527, 52.9795, 26.1450, 26.3011, 76.4, 4.0203, 1B
2009/03/17, 00:50:02, 2.732900, -103.238483, , , 77.0, 9.10, 75.1, 25.482, 1007.92, 19.4, 83.292, 74.5, , , , 34.0041, 26.3044, 1536.4138, 53.0525, 26.2050, 26.3044, 68.4, 4.4618, 1B
2009/03/17, 00:51:02, 2.733483, -103.236100, , , 76.0, 8.70, 76.4, 25.497, 1007.77, 15.2, 83.790, 75.3, , , , 34.0278, 26.3132, 1536.4596, 53.0944, 26.2462, 26.3132, 77.6, 4.6255, 1B
2009/03/17, 00:52:02, 2.734067, -103.233717, , , 72.0, 9.00, 76.0, 25.490, 1008.03, 13.2, 83.744, 75.2, , , , 33.9942, 26.3185, 1536.4360, 53.0532, 26.2017, 26.3185, 73.0, 4.6879, 1B
2009/03/17, 00:53:02, 2.734617, -103.231333, , , 84.0, 8.40, 76.0, 25.497, 1007.82, 11.7, 83.637, 75.3, , , , 33.9756, 26.3163, 1536.4111, 53.0251, 26.1648, 26.3163, 67.8, 5.1332, 1B
2009/03/17, 00:54:01, 2.735167, -103.228950, , , 75.0, 8.90, 75.9, 25.497, 1007.94, 11.2, 83.637, 74.7, , , , 33.9821, 26.3145, 1536.4138, 53.0323, 26.1784, 26.3145, 68.4, 4.5644, 1B
2009/03/17, 00:55:01, 2.735750, -103.226567, , , 76.0, 8.90, 75.8, 25.490, 1007.82, 9.9, 83.767, 75.2, , , , 33.9912, 26.3108, 1536.4186, 53.0428, 26.1944, 26.3108, 76.2, 4.6464, 1B
2009/03/17, 00:56:01, 2.736333, -103.224150, , , 76.0, 9.30, 75.7, 25.490, 1007.81, 9.4, 83.767, 75.0, , , , 33.9711, 26.3038, 1536.3804, 53.0075, 26.1597, 26.3038, 72.9, 4.5878, 1B
2009/03/17, 00:57:02, 2.736900, -103.221750, , , 76.0, 8.70, 75.9, 25.467, 1007.82, 9.1, 83.392, 75.0, , , , 33.9955, 26.2989, 1536.3918, 53.0349, 26.1871, 26.2989, 74.5, 4.8359, 1B
2009/03/17, 00:58:01, 2.737467, -103.219500, , , 72.0, 8.50, 74.7, 25.467, 1007.97, 8.6, 83.392, 73.8, , , , 33.9753, 26.2940, 1536.3605, 53.0025, 26.1614, 26.2940, 72.4, 4.7918, 1B
2009/03/17, 00:59:01, 2.738067, -103.217133, , , 76.0, 8.80, 75.1, 25.474, 1007.92, 7.6, 83.874, 74.0, , , , 33.9693, 26.2928, 1536.3471, 52.9912, 26.1474, 26.2928, 69.7, 4.0273, 1B
2009/03/17, 01:00:02, 2.738683, -103.214733, , , 75.0, 8.90, 75.1, 25.474, 1007.90, 7.0, 83.936, 74.8, , , , 34.0176, 26.3022, 1536.4231, 53.0689, 26.2267, 26.3022, 71.2, 4.0512, 1B
2009/03/17, 01:01:01, 2.739283, -103.212300, , , 77.0, 8.90, 76.0, 25.482, 1007.95, 6.4, 83.744, 75.6, , , , 33.9987, 26.3084, 1536.4129, 53.0471, 26.2065, 26.3084, 77.2, 4.3839, 1B
2009/03/17, 01:02:02, 2.739883, -103.209850, , , 80.0, 9.00, 75.6, 25.459, 1007.85, 5.9, 83.698, 75.0, , , , 33.9574, 26.3103, 1536.3777, 52.9937, 26.1667, 26.3103, 72.6, 4.6500, 1B
2009/03/17, 01:03:01, 2.740483, -103.207400, , , 77.0, 9.00, 75.2, 25.443, 1007.77, 5.3, 83.361, 74.8, , , , 33.9128, 26.3074, 1536.3241, 52.9291, 26.1000, 26.3074, 76.0, 4.3223, 1B
2009/03/17, 01:04:02, 2.741050, -103.204967, , , 75.0, 8.80, 75.9, 25.459, 1007.87, 4.6, 83.292, 74.6, , , , 34.0000, 26.3073, 1536.4162, 53.0498, 26.1839, 26.3073, 77.0, 4.5443, 1B
2009/03/17, 01:05:02, 2.741650, -103.202550, , , 78.0, 8.60, 76.3, 25.428, 1007.93, 4.3, 82.879, 75.4, , , , 33.9636, 26.2998, 1536.3599, 52.9916, 26.1625, 26.2998, 80.7, 4.7719, 1B
2009/03/17, 01:06:01, 2.742233, -103.200150, , , 77.0, 8.90, 75.4, 25.451, 1008.01, 3.8, 83.062, 74.8, , , , 33.9829, 26.2954, 1536.3712, 53.0142, 26.1787, 26.2954, 71.0, 4.8181, 1B
2009/03/17, 01:07:02, 2.742833, -103.197733, , , 83.0, 9.10, 76.2, 25.482, 1007.98, 3.4, 83.713, 75.6, , , , 34.0087, 26.2949, 1536.3966, 53.0491, 26.2185, 26.2949, 77.5, 3.8724, 1B
2009/03/17, 01:08:01, 2.743417, -103.195333, , , 83.0, 9.00, 76.0, 25.490, 1008.08, 3.0, 83.721, 75.5, , , , 33.9977, 26.2891, 1536.3755, 53.0298, 26.1925, 26.2891, 88.3, 3.9292, 1B
2009/03/17, 01:09:02, 2.744000, -103.192933, , , 74.0, 9.00, 76.0, 25.513, 1007.91, 2.6, 83.767, 75.1, , , , 33.9966, 26.2851, 1536.3609, 53.0223, 26.1852, 26.2851, 94.3, 3.7828, 1B
2009/03/17, 01:10:02, 2.744583, -103.190533, , , 75.0, 8.70, 75.7, 25.497, 1007.91, 2.3, 84.158, 75.2, , , , 34.0161, 26.2843, 1536.3798, 53.0485, 26.2027, 26.2843, 78.2, 4.4289, 1B
2009/03/17, 01:11:02, 2.745150, -103.188150, , , 79.0, 8.70, 76.0, 25.451, 1008.11, 1.9, 83.576, 75.7, , , , 33.9984, 26.2843, 1536.3609, 53.0239, 26.1948, 26.2843, 81.2, 4.2880, 1B
2009/03/17, 01:12:02, 2.745717, -103.185767, , , 78.0, 8.60, 76.6, 25.467, 1008.03, 1.8, 83.369, 75.5, , , , 33.9762, 26.2816, 1536.3309, 52.9904, 26.1626, 26.2816, 88.4, 4.7478, 1B
2009/03/17, 01:13:01, 2.746267, -103.183383, , , 76.0, 8.90, 77.0, 25.459, 1008.23, 1.4, 83.093, 75.7, , , , 33.9842, 26.2802, 1536.3362, 53.0001, 26.1648, 26.2802, 92.1, 4.4936, 1B
2009/03/17, 01:14:02, 2.746817, -103.180983, , , 75.0, 8.80, 76.1, 25.467, 1008.12, 1.4, 83.338, 74.9, , , , 34.0018, 26.2781, 1536.3501, 53.0223, 26.1832, 26.2781, 89.1, 4.2324, 1B
2009/03/17, 01:15:02, 2.747400, -103.178583, , , 75.0, 8.90, 75.9, 25.459, 1008.00, 1.3, 83.729, 75.2, , , , 34.0049, 26.2791, 1536.3557, 53.0277, 26.1938, 26.2791, 83.4, 4.1177, 1B
2009/03/17, 01:16:01, 2.747983, -103.176200, , , 75.0, 8.80, 76.3, 25.474, 1007.93, 1.0, 83.859, 75.8, , , , 33.9907, 26.2776, 1536.3371, 53.0064, 26.1738, 26.2776, 78.4, 4.4372, 1B
2009/03/17, 01:17:01, 2.748533, -103.173800, , , 77.0, 8.70, 76.1, 25.451, 1008.19, 1.0, 83.690, 75.8, , , , 33.9963, 26.2773, 1536.3424, 53.0139, 26.1862, 26.2773, 76.0, 4.4449, 1B
2009/03/17, 01:18:01, 2.749100, -103.171400, , , 77.0, 9.00, 76.7, 25.420, 1007.98, 0.7, 83.384, 75.5, , , , 33.9860, 26.2761, 1536.3286, 52.9983, 26.1691, 26.2761, 83.0, 4.3961, 1B
2009/03/17, 01:19:01, 2.749667, -103.168967, , , 79.0, 9.30, 76.5, 25.436, 1008.13, 0.5, 83.468, 75.5, , , , 33.9887, 26.2740, 1536.3287, 53.0009, 26.1699, 26.2740, 77.0, 4.0946, 1B
2009/03/17, 01:20:01, 2.750200, -103.166550, , , 81.0, 8.80, 76.3, 25.467, 1007.99, 0.5, 83.951, 75.9, , , , 33.9834, 26.2665, 1536.3074, 52.9867, 26.1549, 26.2665, 73.1, 3.9868, 1B
2009/03/17, 01:21:01, 2.750783, -103.164133, , , 76.0, 9.10, 76.6, 25.451, 1008.04, 0.5, 84.196, 75.3, , , , 33.9724, 26.2582, 1536.2733, 52.9616, 26.1301, 26.2582, 81.5, 4.4225, 1B
2009/03/17, 01:22:01, 2.751383, -103.161733, , , 77.0, 8.90, 75.9, 25.436, 1008.02, 0.4, 83.974, 75.1, , , , 33.9977, 26.2547, 1536.2910, 52.9926, 26.1608, 26.2547, 78.6, 4.3644, 1B
2009/03/17, 01:23:01, 2.751983, -103.159333, , , 79.0, 8.90, 76.2, 25.451, 1008.12, 0.3, 84.326, 75.0, , , , 34.0080, 26.2583, 1536.3083, 53.0096, 26.1595, 26.2583, 78.0, 4.1347, 1B
2009/03/17, 01:24:01, 2.752583, -103.156917, , , 75.0, 9.00, 76.1, 25.451, 1008.01, 0.4, 84.326, 75.2, , , , 34.0281, 26.2617, 1536.3388, 53.0415, 26.1956, 26.2617, 76.2, 4.3231, 1B
2009/03/17, 01:25:01, 2.753133, -103.154500, , , 84.0, 8.70, 76.9, 25.436, 1008.06, 0.3, 83.507, 75.2, , , , 34.0096, 26.2628, 1536.3228, 53.0174, 26.1839, 26.2628, 80.0, 4.4956, 1B
2009/03/17, 01:26:01, 2.753700, -103.152067, , , 78.0, 9.10, 76.6, 25.443, 1008.20, 0.5, 83.629, 75.5, , , , 34.0190, 26.2654, 1536.3379, 53.0327, 26.1915, 26.2654, 81.0, 4.2329, 1B
2009/03/17, 01:27:01, 2.754283, -103.149650, , , 75.0, 9.00, 76.1, 25.436, 1008.31, 0.5, 83.545, 75.3, , , , 33.9952, 26.2650, 1536.3125, 52.9998, 26.1662, 26.2650, 79.2, 4.6276, 1B
2009/03/17, 01:28:02, 2.754833, -103.147200, , , 74.0, 9.00, 76.2, 25.459, 1008.17, 0.5, 83.982, 75.4, , , , 34.0000, 26.2659, 1536.3198, 53.0073, 26.1657, 26.2659, 86.9, 4.4300, 1B
2009/03/17, 01:29:02, 2.755417, -103.144767, , , 78.0, 8.80, 76.1, 25.482, 1008.08, 0.5, 83.974, 75.1, , , , 34.0154, 26.2694, 1536.3444, 53.0323, 26.1812, 26.2694, 77.8, 4.6675, 1B
2009/03/17, 01:30:01, 2.756000, -103.142333, , , 75.0, 9.00, 76.2, 25.482, 1008.13, 0.5, 83.974, 75.6, , , , 34.0297, 26.2717, 1536.3638, 53.0540, 26.2102, 26.2717, 83.5, 4.3330, 1B
2009/03/17, 01:31:02, 2.756650, -103.139933, , , 71.0, 8.90, 64.9, 25.451, 1008.07, 0.5, 83.522, 63.0, , , , 34.0224, 26.2768, 1536.3691, 53.0496, 26.2043, 26.2768, 73.2, 4.4654, 1B
2009/03/17, 01:32:02, 2.757933, -103.137783, , , 51.0, 9.00, 48.7, 25.459, 1008.11, 0.5, 83.522, 46.5, , , , 34.0122, 26.2793, 1536.3640, 53.0380, 26.1887, 26.2793, 77.2, 4.5682, 1B
2009/03/17, 01:33:02, 2.759850, -103.136150, , , 34.0, 9.20, 33.0, 25.482, 1008.02, 0.5, 83.936, 31.3, , , , 33.9746, 26.2769, 1536.3183, 52.9834, 26.1553, 26.2769, 79.8, 4.3954, 1B
2009/03/17, 01:34:02, 2.762183, -103.135100, , , 16.0, 9.10, 18.1, 25.474, 1008.27, 0.5, 84.173, 16.2, , , , 33.9728, 26.2710, 1536.3026, 52.9748, 26.1460, 26.2710, 73.4, 4.5927, 1B
2009/03/17, 01:35:02, 2.764767, -103.134700, , , 2.0, 9.30, 3.4, 25.459, 1008.38, 0.2, 83.851, 1.1, , , , 33.9606, 26.2661, 1536.2782, 52.9529, 26.1237, 26.2661, 80.3, 4.6743, 1B
2009/03/17, 01:36:02, 2.767450, -103.135050, , , 345.0, 9.80, 347.5, 25.459, 1008.30, 0.1, 84.004, 346.3, , , , 33.9263, 26.2567, 1536.2197, 52.8957, 26.0683, 26.2567, 77.8, 4.6865, 1B
2009/03/17, 01:37:02, 2.770050, -103.136083, , , 333.0, 10.30, 343.0, 25.436, 1008.25, 0.1, 83.844, 342.1, , , , 33.9211, 26.2456, 1536.1882, 52.8771, 26.0493, 26.2456, 87.9, 5.5458, 1B
2009/03/17, 01:38:02, 2.772683, -103.137217, , , 336.0, 10.40, 344.0, 25.428, 1008.37, 0.1, 84.096, 342.9, , , , 33.9853, 26.2348, 1536.2316, 52.9551, 26.1190, 26.2348, 89.6, 5.3637, 1B
2009/03/17, 01:39:02, 2.775417, -103.138317, , , 339.0, 10.80, 344.6, 25.420, 1008.26, 0.1, 83.974, 343.5, , , , 33.9743, 26.2295, 1536.2075, 52.9344, 26.0988, 26.2295, 88.8, 5.2117, 1B
2009/03/17, 01:40:01, 2.778217, -103.139400, , , 341.0, 11.00, 344.5, 25.420, 1008.49, 0.1, 84.188, 343.2, , , , 33.9754, 26.2267, 1536.2021, 52.9330, 26.1053, 26.2267, 91.4, 5.1595, 1B
2009/03/17, 01:41:01, 2.781050, -103.140500, , , 339.0, 11.10, 344.4, 25.413, 1008.31, 0.1, 84.035, 343.3, , , , 33.9698, 26.2191, 1536.1784, 52.9175, 26.0963, 26.2191, 91.6, 5.3023, 1B
2009/03/17, 01:42:02, 2.783950, -103.141650, , , 337.0, 11.40, 343.7, 25.405, 1008.52, 0.1, 84.058, 342.9, , , , 33.9632, 26.2095, 1536.1490, 52.8985, 26.0731, 26.2095, 93.6, 5.1620, 1B
2009/03/17, 01:43:02, 2.786933, -103.142850, , , 337.0, 11.50, 343.8, 25.405, 1008.44, 0.1, 84.303, 343.3, , , , 34.0032, 26.2054, 1536.1821, 52.9498, 26.1212, 26.2054, 92.9, 4.8982, 1B
2009/03/17, 01:44:02, 2.789950, -103.144033, , , 339.0, 11.70, 344.2, 25.397, 1008.45, 0.1, 84.257, 343.9, , , , 34.0107, 26.2080, 1536.1962, 52.9628, 26.1443, 26.2080, 91.0, 5.3208, 1B
2009/03/17, 01:45:02, 2.793000, -103.145217, , , 339.0, 11.70, 343.1, 25.397, 1008.40, 0.1, 84.273, 343.1, , , , 33.9955, 26.2060, 1536.1753, 52.9397, 26.1187, 26.2060, 90.9, 5.4934, 1B
2009/03/17, 01:46:02, 2.796050, -103.146400, , , 340.0, 12.20, 344.3, 25.382, 1008.51, 0.1, 83.844, 344.2, , , , 33.9881, 26.2030, 1536.1604, 52.9264, 26.1158, 26.2030, 96.9, 5.3569, 1B
2009/03/17, 01:47:01, 2.799067, -103.147617, , , 337.0, 11.40, 343.2, 25.405, 1008.50, 0.1, 83.913, 342.7, , , , 33.9773, 26.1980, 1536.1388, 52.9070, 26.0992, 26.1980, 95.7, 5.1455, 1B
2009/03/17, 01:48:01, 2.802083, -103.148833, , , 337.0, 11.70, 343.9, 25.405, 1008.57, 0.1, 84.158, 343.5, , , , 33.9729, 26.1924, 1536.1220, 52.8956, 26.0833, 26.1924, 94.4, 5.1676, 1B
2009/03/17, 01:49:02, 2.805067, -103.150017, , , 337.0, 11.50, 344.1, 25.405, 1008.42, 0.1, 84.326, 343.4, , , , 34.0081, 26.1915, 1536.1549, 52.9423, 26.1345, 26.1915, 88.6, 5.3434, 1B
2009/03/17, 01:50:01, 2.808033, -103.151167, , , 337.0, 11.50, 344.5, 25.405, 1008.40, 0.1, 84.081, 343.4, , , , 33.9786, 26.1911, 1536.1229, 52.9013, 26.1033, 26.1911, 90.5, 5.5568, 1B
2009/03/17, 01:51:02, 2.811000, -103.152317, , , 339.0, 11.50, 343.4, 25.405, 1008.52, 0.3, 83.828, 343.5, , , , 33.9603, 26.1848, 1536.0882, 52.8693, 26.0706, 26.1848, 90.1, 5.2768, 1B
2009/03/17, 01:52:01, 2.813950, -103.153483, , , 339.0, 11.50, 343.9, 25.405, 1008.39, 0.2, 83.828, 343.9, , , , 33.9659, 26.1767, 1536.0773, 52.8696, 26.0723, 26.1767, 93.1, 5.3607, 1B
2009/03/17, 01:53:01, 2.816917, -103.154650, , , 339.0, 11.30, 343.1, 25.390, 1008.45, 0.2, 83.560, 343.5, , , , 33.9557, 26.1646, 1536.0405, 52.8441, 26.0508, 26.1646, 91.8, 5.2976, 1B
2009/03/17, 01:54:01, 2.819917, -103.155850, , , 336.0, 11.80, 344.5, 25.405, 1008.55, 0.1, 83.775, 343.6, , , , 33.9899, 26.1600, 1536.0619, 52.8849, 26.0850, 26.1600, 96.5, 4.9153, 1B
2009/03/17, 01:55:01, 2.822883, -103.157033, , , 340.0, 11.40, 343.0, 25.397, 1008.43, 0.1, 83.660, 344.2, , , , 34.0257, 26.1676, 1536.1132, 52.9401, 26.1259, 26.1676, 94.5, 5.1871, 1B
2009/03/17, 01:56:02, 2.825850, -103.158183, , , 341.0, 11.40, 343.8, 25.397, 1008.59, 0.1, 83.660, 344.5, , , , 33.9528, 26.1671, 1536.0388, 52.8408, 26.0606, 26.1671, 96.8, 5.1412, 1B
2009/03/17, 01:57:02, 2.828850, -103.159367, , , 339.0, 11.70, 343.3, 25.413, 1008.48, 0.1, 83.576, 343.2, , , , 33.9589, 26.1632, 1536.0362, 52.8452, 26.0563, 26.1632, 96.9, 5.0962, 1B
2009/03/17, 01:58:01, 2.831900, -103.160567, , , 335.0, 12.00, 344.0, 25.413, 1008.47, 0.1, 83.851, 343.6, , , , 34.0011, 26.1653, 1536.0841, 52.9049, 26.1063, 26.1653, 100.1, 5.2786, 1B
2009/03/17, 01:59:01, 2.834933, -103.161767, , , 338.0, 11.60, 343.9, 25.405, 1008.37, 0.1, 83.767, 343.8, , , , 34.0047, 26.1691, 1536.0989, 52.9147, 26.1257, 26.1691, 92.9, 5.4331, 1B
2009/03/17, 02:00:01, 2.837933, -103.162917, , , 338.0, 11.30, 344.0, 25.390, 1008.49, 0.2, 83.759, 343.8, , , , 33.9951, 26.1728, 1536.0945, 52.9039, 26.1088, 26.1728, 96.9, 5.4112, 1B
2009/03/17, 02:01:02, 2.840933, -103.164083, , , 338.0, 11.80, 343.8, 25.397, 1008.58, 0.1, 83.828, 342.9, , , , 33.9370, 26.1736, 1536.0371, 52.8255, 26.0433, 26.1736, 98.8, 5.6420, 1B
2009/03/17, 02:02:01, 2.843950, -103.165267, , , 338.0, 11.70, 343.7, 25.397, 1008.57, 0.1, 83.943, 343.3, , , , 33.9458, 26.1699, 1536.0402, 52.8350, 26.0536, 26.1699, 91.6, 5.2228, 1B
2009/03/17, 02:03:01, 2.846967, -103.166450, , , 336.0, 11.80, 343.4, 25.382, 1008.52, 0.2, 83.392, 342.9, , , , 33.9463, 26.1613, 1536.0242, 52.8284, 26.0496, 26.1613, 92.1, 5.1335, 1B
2009/03/17, 02:04:01, 2.849967, -103.167650, , , 339.0, 11.70, 344.2, 25.420, 1008.70, 0.2, 84.219, 343.9, , , , 33.9514, 26.1543, 1536.0095, 52.8266, 26.0477, 26.1543, 98.7, 5.0364, 1B
2009/03/17, 02:05:01, 2.852983, -103.168817, , , 338.0, 11.40, 343.6, 25.397, 1008.60, 0.1, 83.928, 343.3, , , , 33.9615, 26.1503, 1536.0112, 52.8366, 26.0534, 26.1503, 98.4, 5.2349, 1B
2009/03/17, 02:06:01, 2.856017, -103.169967, , , 340.0, 11.70, 343.2, 25.413, 1008.46, 0.2, 84.066, 344.0, , , , 33.9648, 26.1477, 1536.0082, 52.8384, 26.0630, 26.1477, 97.5, 5.5675, 1B
2009/03/17, 02:07:01, 2.859067, -103.171167, , , 340.0, 12.00, 344.0, 25.413, 1008.56, 0.4, 84.066, 343.6, , , , 33.9661, 26.1469, 1536.0063, 52.8387, 26.0645, 26.1469, 96.4, 5.9983, 1B